Weather History for Ainsworth, NE

Change the Weather History Date:

Tuesday, November 20, 2012

  Actual Average Record
Temperature  
Mean Temperature 50 °F -  
Max Temperature 72 °F 43 °F 72 °F (2012)
Min Temperature 29 °F 23 °F 10 °F (2000)
Degree Days  
Heating Degree Days 14    
Moisture  
Dew Point 22 °F    
Average Humidity 37    
Maximum Humidity 73    
Minimum Humidity 11    
Precipitation  
Precipitation 0.00 in - - ()
Sea Level Pressure  
Sea Level Pressure 30.06 in    
Wind  
Wind Speed 10 mph (SSW)    
Max Wind Speed 24 mph    
Max Gust Speed 32 mph    
Visibility 10 miles    
Events      
Averages and records for this station are not official NWS values.
T = Trace of Precipitation, MM = Missing Value Source: NWS Daily Summary

Daily Weather History Graph

Daily Weather History Graph

Search for Another Location

Airport:

Trip Planner

Search our weather history database for the weather conditions in past years. The results will help you decide how hot, cold, wet, or windy it might be!

Date:

Astronomy

Nov. 20, 2012 Rise Set
Actual Time 7:38 AM CST 5:12 PM CST
Civil Twilight 7:07 AM CST 5:43 PM CST
Nautical Twilight 6:32 AM CST 6:18 PM CST
Astronomical Twilight 5:59 AM CST 6:51 PM CST
Moon 1:08 PM CST No Moon Set
Length of Visible Light 10h 36m
Length of Day
9h 34m
First Quarter, 51% of the Moon is Illuminated
Nov 20
First Quarter
Nov 28
Full
Dec 6
Last Quarter
Dec 13
New
Dec 19
First Quarter

Hourly Weather History & Observations

Time (CST) Temp. Windchill Dew Point Humidity Pressure Visibility Wind Dir Wind Speed Gust Speed Precip Events Conditions
12:15 AM 30.4 °F 24.5 °F 21.2 °F 69% 30.16 in 10.0 mi South 5.8 mph - N/A   Clear
12:35 AM 29.1 °F 21.3 °F 21.6 °F 73% 30.17 in 10.0 mi South 8.1 mph - N/A   Clear
12:55 AM 30.4 °F 23.6 °F 21.6 °F 70% 30.17 in 10.0 mi SW 6.9 mph - N/A   Clear
1:15 AM 31.1 °F 26.4 °F 22.3 °F 70% 30.17 in 10.0 mi SSW 4.6 mph - N/A   Clear
1:35 AM 31.1 °F 25.4 °F 22.5 °F 70% 30.17 in 10.0 mi SSW 5.8 mph - N/A   Clear
1:55 AM 32.5 °F 27.1 °F 23.5 °F 69% 30.17 in 10.0 mi SSW 5.8 mph - N/A   Clear
2:15 AM 31.6 °F 25.1 °F 23.5 °F 72% 30.17 in 10.0 mi SW 6.9 mph - N/A   Clear
2:35 AM 31.3 °F 24.7 °F 22.6 °F 70% 30.16 in 10.0 mi South 6.9 mph - N/A   Clear
6:15 AM 39.7 °F 34.3 °F 27.3 °F 61% 30.11 in 10.0 mi South 8.1 mph - N/A   Clear
6:35 AM 38.7 °F 32.9 °F 26.4 °F 61% 30.12 in 10.0 mi SSW 8.1 mph - N/A   Clear
6:55 AM 35.4 °F 29.7 °F 25.7 °F 68% 30.12 in 10.0 mi SSW 6.9 mph - N/A   Clear
7:15 AM 35.2 °F 28.8 °F 26.1 °F 69% 30.12 in 10.0 mi SSW 8.1 mph - N/A   Clear
7:35 AM 35.1 °F 27.9 °F 26.6 °F 71% 30.12 in 10.0 mi SSW 9.2 mph - N/A   Clear
7:55 AM 36.5 °F 31.0 °F 27.1 °F 69% 30.12 in 10.0 mi SSW 6.9 mph - N/A   Clear
8:15 AM 37.4 °F 31.4 °F 27.7 °F 68% 30.12 in 10.0 mi SSW 8.1 mph - N/A   Clear
8:35 AM 40.3 °F 34.9 °F 27.9 °F 61% 30.13 in 10.0 mi SSW 8.1 mph - N/A   Clear
8:55 AM 42.3 °F 36.8 °F 27.9 °F 57% 30.12 in 10.0 mi SSW 9.2 mph - N/A   Clear
9:15 AM 45.3 °F 40.1 °F 28.2 °F 51% 30.12 in 10.0 mi SSW 10.4 mph - N/A   Clear
9:35 AM 48.9 °F - 28.0 °F 44% 30.11 in 10.0 mi SSW 12.7 mph - N/A   Clear
9:55 AM 51.8 °F - 27.1 °F 39% 30.11 in 10.0 mi SW 13.8 mph - N/A   Clear
10:15 AM 54.5 °F - 26.4 °F 34% 30.11 in 10.0 mi SW 11.5 mph 17.3 mph N/A   Clear
10:35 AM 58.1 °F - 24.8 °F 28% 30.11 in 10.0 mi SW 15.0 mph - N/A   Clear
10:55 AM 60.1 °F - 24.3 °F 25% 30.11 in 10.0 mi SSW 13.8 mph - N/A   Clear
11:15 AM 62.6 °F - 23.7 °F 23% 30.11 in 10.0 mi SSW 12.7 mph - N/A   Clear
11:35 AM 64.4 °F - 23.7 °F 21% 30.10 in 10.0 mi SSW 15.0 mph 18.4 mph N/A   Clear
11:55 AM 65.8 °F - 23.9 °F 20% 30.09 in 10.0 mi SSW 19.6 mph - N/A   Clear
12:15 PM 67.6 °F - 24.4 °F 20% 30.07 in 10.0 mi SSW 18.4 mph 23.0 mph N/A   Clear
12:35 PM 69.4 °F - 24.1 °F 18% 30.06 in 10.0 mi SSW 16.1 mph 24.2 mph N/A   Clear
12:55 PM 69.1 °F - 23.5 °F 18% 30.05 in 10.0 mi SSW 16.1 mph 21.9 mph N/A   Clear
1:15 PM 71.1 °F - 23.0 °F 16% 30.03 in 10.0 mi SSW 16.1 mph 24.2 mph N/A   Clear
1:35 PM 72.3 °F - 19.2 °F 13% 30.02 in 10.0 mi SW 24.2 mph 28.8 mph N/A   Clear
1:55 PM 72.0 °F - 18.5 °F 13% 30.02 in 10.0 mi SW 21.9 mph 29.9 mph N/A   Clear
2:15 PM 72.3 °F - 15.8 °F 12% 30.01 in 10.0 mi SW 21.9 mph 31.1 mph N/A   Clear
2:35 PM 72.1 °F - 16.0 °F 12% 30.00 in 10.0 mi SW 24.2 mph 32.2 mph N/A   Clear
2:55 PM 72.0 °F - 15.3 °F 12% 29.99 in 10.0 mi WSW 20.7 mph 29.9 mph N/A   Clear
3:15 PM 72.5 °F - 15.6 °F 11% 29.99 in 10.0 mi SW 17.3 mph 23.0 mph N/A   Clear
3:35 PM 71.8 °F - 15.8 °F 12% 29.99 in 10.0 mi SW 16.1 mph 24.2 mph N/A   Clear
3:55 PM 72.5 °F - 14.9 °F 11% 29.99 in 10.0 mi WSW 16.1 mph 24.2 mph N/A   Clear
4:15 PM 71.8 °F - 13.6 °F 11% 29.99 in 10.0 mi WSW 17.3 mph 20.7 mph N/A   Clear
4:35 PM 69.6 °F - 15.3 °F 12% 30.00 in 10.0 mi SW 15.0 mph - N/A   Clear
4:55 PM 67.6 °F - 16.0 °F 14% 30.00 in 10.0 mi SW 11.5 mph - N/A   Clear
5:15 PM 64.4 °F - 17.8 °F 17% 30.01 in 10.0 mi SSW 10.4 mph - N/A   Clear
5:35 PM 61.5 °F - 19.2 °F 20% 30.01 in 10.0 mi SSW 10.4 mph - N/A   Clear
5:55 PM 60.6 °F - 20.1 °F 21% 30.01 in 10.0 mi SSW 9.2 mph - N/A   Clear
6:15 PM 57.6 °F - 20.3 °F 24% 30.01 in 10.0 mi SSW 6.9 mph - N/A   Clear
6:35 PM 53.6 °F - 21.2 °F 28% 30.01 in 10.0 mi SSW 9.2 mph - N/A   Clear
6:55 PM 53.6 °F - 21.2 °F 28% 30.01 in 10.0 mi SSW 9.2 mph - N/A   Clear
7:15 PM 51.3 °F - 21.0 °F 31% 30.00 in 10.0 mi SSW 8.1 mph - N/A   Clear
7:35 PM 50.5 °F - 21.2 °F 32% 30.00 in 10.0 mi SSW 9.2 mph - N/A   Clear
7:55 PM 52.7 °F - 21.6 °F 30% 29.99 in 10.0 mi SSW 10.4 mph - N/A   Clear
8:15 PM 54.3 °F - 21.9 °F 28% 29.99 in 10.0 mi SSW 10.4 mph - N/A   Clear
8:35 PM 52.7 °F - 21.9 °F 30% 29.99 in 10.0 mi SSW 10.4 mph - N/A   Clear
8:55 PM 52.7 °F - 22.1 °F 30% 30.00 in 10.0 mi SSW 10.4 mph - N/A   Clear
9:15 PM 51.3 °F - 22.5 °F 32% 29.99 in 10.0 mi SSW 10.4 mph - N/A   Clear
9:35 PM 50.0 °F - 23.0 °F 35% 29.99 in 10.0 mi SSW 10.4 mph - N/A   Clear
9:55 PM 50.2 °F - 23.4 °F 35% 29.99 in 10.0 mi SSW 10.4 mph - N/A   Clear
10:15 PM 52.0 °F - 23.0 °F 32% 29.99 in 10.0 mi SSW 12.7 mph - N/A   Clear
10:35 PM 50.7 °F - 23.4 °F 34% 29.99 in 10.0 mi SSW 12.7 mph - N/A   Clear
10:55 PM 50.9 °F - 23.4 °F 34% 29.99 in 10.0 mi SSW 13.8 mph - N/A   Clear
11:15 PM 50.0 °F - 23.0 °F 35% 29.99 in 10.0 mi SSW 11.5 mph - N/A   Clear
11:35 PM 48.7 °F - 23.4 °F 37% 29.99 in 10.0 mi SSW 13.8 mph - N/A   Clear
11:55 PM 48.2 °F - 23.0 °F 37% 29.99 in 10.0 mi SSW 12.7 mph - N/A   Clear